Monarch Pass, CO

3:02 PM MDT on July 24, 2017 (GMT -0600)
Monarch Pass | | Change Station

Elev 12031 ft 38.29 °N, 106.19 °W | Updated 10 minutes ago

Rain
Rain
55 °F
Feels Like 55 °F
N
12
Wind Variable Wind from NE

Today
High -- | Low -- °F
--% Chance of Precip.
Yesterday
High -- | Low -- °F
Precip. -- in
Pressure 30.74 in
Visibility 10.0 miles
Clouds Scattered Clouds 4300 ft
Mostly Cloudy 5000 ft
Overcast 6000 ft
Dew Point 37 °F
Humidity 51%
Rainfall 0.00 in
Snow Depth Not available.
6:00 AM 8:21 PM
Waxing Crescent, 3% visible
METAR KMYP 242052Z AUTO 04010KT 10SM RA SCT043 BKN050 OVC060 13/03 A3074 RMK AO2 LTG DSNT SE THRU W
Pressure 30.74 in
Visibility 10.0 miles
Clouds Scattered Clouds 4300 ft
Mostly Cloudy 5000 ft
Overcast 6000 ft
Dew Point 37 °F
Humidity 51%
Rainfall 0.00 in
Snow Depth Not available.
6:00 AM 8:21 PM
Waxing Crescent, 3% visible
METAR KMYP 242052Z AUTO 04010KT 10SM RA SCT043 BKN050 OVC060 13/03 A3074 RMK AO2 LTG DSNT SE THRU W

Get Severe Weather Alerts

Thanks for signing up!

Be on the lookout for a verification email in your inbox.

You'll start receiving the daily forecast at 6 AM.

×

10-Day Weather Forecast

Almanac

Astronomy

Jul. 24, 2017 Rise Set
Actual Time
Civil Twilight
Nautical Twilight
Astronomical Twilight
Moon
Length of Visible Light
Length of Day
Tomorrow will be .
, % of the Moon is Illuminated

Today's Extremes

State Highs State Lows

Community

WunderPhotos

Category 6

Welcome to Category 6. This is the collective home for Weather Underground's featured writeups by Dr. Jeff Masters (right), Bob Henson (left), Chris Burt, and other regular contributors.

Nearby

Air Quality

  Air Quality AQ Index Pollutant
Not available.

Snow Depth

Station Depth Elevation

Earthquake Activity

City Distance Mag. Time & Date
Minimum magnitude displayed is 2.5.

Coastal Water Temperatures

Place Temperature

Stations

Nearby Weather Stations

Station Location Temp. Windchill Dew Point Humidity Wind Precip. Elev Updated Type
                   

Watches & Warnings

There are currently no watches in effect.